Probability
0 0 0 0 0 0 0 0 0 0 0 0 0 0 0 0 0 0 0 0 0 0 0 0 0 0 0 0 0 0 0 0 0 0 0 0 0 0 0 0 0 0 0
0 0 0 0 0 0 0 0 0 0 0 0 0 0 0 0 0 0 0 0 0 0 0 0 0 0 0 0 0 0 0 0 0 0 0 0 0 0 0 0 0 0 0
0 0 0 0 0 0 0 0 0 0 0 0 0 0 0 0 0 0 0 0 0 0 0 0 0 0 0 0 0 0 0 0 0 0 0 0 0 0 0 0 0 0 0
0 0 0 0 0 0 0 0 0 0 0 0 0 0 0 0 0 0 0 0 0 0 0 0 0 0 0 0 0 0 0 0 0 0 0 0 0 0 0 0 0 0 0
0 0 0 0 0 0 0 0 0 0 0 0 0 0 0 0 0 0 0 0 0 0 0 0 0 0 0 0 0 0 0 0 0 0 0 0 0 0 0 0 0 0 0
1 0 0 0 0 0 0 0 0 0 0 0 0 0 0 0 0 0 0 0 0 0 0 0 0 0 0 0 0 0 0 0 0 0 0 0 0 0 0 0 0 0 0
2 1 1 1 1 0 0 0 0 0 0 0 0 0 0 0 0 0 0 0 0 0 0 0 0 0 0 0 0 0 0 0 0 0 0 0 0 0 0 0 0 0 0
6 5 5 6 4 2 0 0 0 0 0 0 0 0 0 0 0 0 0 0 0 0 0 0 0 0 0 0 0 0 0 0 0 0 0 0 0 0 0 0 0 0 0
22 15 9 10 8 3 1 1 0 0 0 0 0 0 0 0 0 0 0 0 0 0 0 0 0 0 0 0 0 0 0 0 0 0 0 0 0 0 0 0 0 0 0
47 33 20 14 9 4 1 1 0 0 0 0 0 0 0 0 0 0 0 0 0 0 0 0 0 0 0 0 0 0 0 0 0 0 0 0 0 0 0 0 0 0 0
65 53 37 25 15 7 3 2 1 1 0 0 0 0 0 0 0 0 0 0 0 0 0 0 0 0 0 0 0 0 0 0 0 0 0 0 0 0 0 0 0 0 0
71 65 52 38 27 15 8 4 3 2 1 0 0 0 0 0 0 0 0 0 0 0 0 0 0 0 0 0 0 0 0 0 0 0 0 0 0 0 0 0 0 0 0
61 60 55 47 36 25 15 8 5 3 2 1 0 0 0 0 0 0 0 0 0 0 0 0 0 0 0 0 0 0 0 0 0 0 0 0 0 0 0 0 0 0 0
39 43 47 46 39 29 19 12 7 4 3 2 1 0 0 0 0 0 0 0 0 0 0 0 0 0 0 0 0 0 0 0 0 0 0 0 0 0 0 0 0 0 0
17 23 32 36 34 25 17 10 6 4 3 2 1 0 0 0 0 0 0 0 0 0 0 0 0 0 0 0 0 0 0 0 0 0 0 0 0 0 0 0 0 0 0
4 8 15 20 20 16 10 6 4 3 3 2 1 0 0 0 0 0 0 0 0 0 0 0 0 0 0 0 0 0 0 0 0 0 0 0 0 0 0 0 0 0 0
0 2 4 6 6 6 4 3 2 2 2 1 0 0 0 0 0 0 0 0 0 0 0 0 0 0 0 0 0 0 0 0 0 0 0 0 0 0 0 0 0 0 0
0 0 1 1 0 1 1 1 0 1 1 0 0 0 0 0 0 0 0 0 0 0 0 0 0 0 0 0 0 0 0 0 0 0 0 0 0 0 0 0 0 0 0
0 0 0 0 0 0 0 0 0 0 0 0 0 0 0 0 0 0 0 0 0 0 0 0 0 0 0 0 0 0 0 0 0 0 0 0 0 0 0 0 0 0 0
0 0 0 0 0 0 0 0 0 0 0 0 0 0 0 0 0 0 0 0 0 0 0 0 0 0 0 0 0 0 0 0 0 0 0 0 0 0 0 0 0 0 0
0 0 0 0 0 0 0 0 0 0 0 0 0 0 0 0 0 0 0 0 0 0 0 0 0 0 0 0 0 0 0 0 0 0 0 0 0 0 0 0 0 0 0
0 0 0 0 0 0 0 0 0 0 0 0 0 0 0 0 0 0 0 0 0 0 0 0 0 0 0 0 0 0 0 0 0 0 0 0 0 0 0 0 0 0 0
0 0 0 0 0 0 0 0 0 0 0 0 0 0 0 0 0 0 0 0 0 0 0 0 0 0 0 0 0 0 0 0 0 0 0 0 0 0 0 0 0 0 0
0 0 0 0 0 0 0 0 0 0 0 0 0 0 0 0 0 0 0 0 0 0 0 0 0 0 0 0 0 0 0 0 0 0 0 0 0 0 0 0 0 0 0
0 0 0 0 0 0 0 0 0 0 0 0 0 0 0 0 0 0 0 0 0 0 0 0 0 0 0 0 0 0 0 0 0 0 0 0 0 0 0 0 0 0 0
0 0 0 0 0 0 0 0 0 0 0 0 0 0 0 0 0 0 0 0 0 0 0 0 0 0 0 0 0 0 0 0 0 0 0 0 0 0 0 0 0 0 0
Wind_Speed
8 8 6 6 7 6 6 6 6 6 6 5 5 5 6 6 5 5 6 8 8 9 8 7 6 6 5 6 6 6 6 7 7 7 7 7 7 8 8 8 8 9 9
9 8 8 8 8 7 7 7 7 6 5 5 6 6 6 6 6 6 6 7 7 8 8 7 6 5 5 5 5 5 5 5 6 6 6 6 7 7 7 7 8 8 9
11 10 9 9 9 8 9 7 7 6 5 5 6 6 5 6 6 7 6 6 7 7 7 8 7 5 4 4 4 4 4 4 5 5 5 6 6 6 7 7 7 8 9
14 11 10 9 10 9 8 8 7 7 6 6 6 5 5 5 7 7 7 6 6 6 7 8 7 6 4 3 2 3 3 4 4 5 5 6 6 7 8 8 8 9 10
16 13 11 10 11 9 9 9 8 8 8 7 6 5 5 6 7 7 8 8 7 6 6 8 7 6 4 3 1 2 3 4 5 5 6 7 7 8 9 10 10 11 11
16 14 11 13 12 10 10 10 11 9 7 7 6 5 5 5 6 7 8 8 7 8 8 8 7 6 5 3 1 1 3 5 6 6 7 8 9 10 11 12 12 13 13
15 15 12 13 13 12 13 14 11 11 8 7 5 5 5 6 7 7 7 8 9 9 9 8 6 6 5 5 2 1 3 5 6 7 8 9 10 11 12 13 14 15 15
15 13 16 13 14 12 15 15 14 10 8 9 7 5 6 7 8 8 8 8 9 8 9 9 8 7 5 4 4 2 1 4 6 8 9 11 12 13 14 15 16 17 17
16 15 16 15 14 14 14 16 17 16 11 10 10 8 6 8 5 6 9 8 9 8 8 8 8 7 6 4 4 4 1 2 5 8 10 12 13 15 16 17 18 19 19
16 16 16 16 15 13 15 16 17 15 14 11 9 8 6 3 5 5 5 7 8 8 9 7 7 7 6 4 3 3 1 2 5 8 11 13 15 17 18 19 19 20 20
15 15 16 15 15 13 15 16 16 17 14 14 10 8 7 4 5 4 5 6 6 6 6 6 5 5 6 5 4 4 2 3 6 9 13 15 17 18 19 20 20 21 21
11 15 14 14 14 13 15 15 15 18 15 15 12 9 8 7 8 7 5 4 4 4 5 4 4 4 4 4 4 4 3 3 7 11 14 17 18 19 19 20 21 21 21
10 13 13 13 12 13 12 12 12 14 15 15 13 10 8 6 4 5 4 4 3 3 3 3 3 3 4 3 4 4 4 6 9 13 16 18 19 19 20 21 21 22 22
10 10 12 12 12 11 10 10 9 10 9 10 10 8 5 4 3 3 4 5 4 3 3 4 2 3 3 3 3 5 6 8 11 14 17 18 19 19 20 21 21 22 22
7 8 9 9 9 9 9 9 7 8 7 7 6 6 4 3 3 3 3 3 5 5 5 4 3 3 3 3 5 5 7 9 13 16 17 18 19 19 20 21 22 22 22
5 5 5 6 6 7 8 8 7 7 8 7 6 8 6 5 5 4 4 3 3 3 3 3 3 3 3 4 7 7 8 12 15 16 17 18 19 20 21 21 21 22 22
3 3 4 4 5 6 8 8 8 9 10 9 9 9 9 8 6 5 5 4 4 3 3 1 1 2 3 6 6 7 8 8 9 15 17 18 19 20 20 21 21 21 22
1 1 2 3 5 6 7 8 9 10 10 11 10 11 10 8 8 6 5 4 4 3 2 2 2 4 6 6 7 8 8 8 9 14 18 19 20 20 20 20 20 20 21
5 5 4 5 5 6 7 8 9 9 9 10 10 10 10 9 8 5 5 4 3 2 2 2 3 4 4 5 7 8 9 8 9 11 15 17 18 18 19 20 21 21 22
8 8 8 8 8 8 9 10 10 11 11 10 10 9 8 8 7 6 4 4 3 2 3 4 4 4 5 6 6 7 7 7 8 9 11 13 15 17 19 21 21 22 22
11 11 11 11 10 9 9 11 11 12 12 11 10 9 8 8 7 5 3 3 3 3 3 4 4 5 5 5 6 6 8 8 9 9 8 8 9 10 12 16 18 19 20
11 11 11 11 11 9 15 17 13 11 10 10 9 8 7 7 6 4 2 2 3 4 4 4 5 6 7 7 6 6 8 9 8 6 8 10 10 11 11 10 16 20 22
11 12 12 12 12 14 18 18 17 11 10 8 7 6 5 4 3 1 0 2 3 4 6 6 7 8 8 7 8 9 9 10 11 10 11 12 11 12 11 11 19 22 23
10 10 11 11 11 14 18 18 16 10 9 7 6 5 4 3 1 1 2 3 4 5 5 6 7 8 8 8 8 9 10 11 12 10 10 12 11 11 11 11 17 21 22
10 9 9 10 11 12 14 13 10 6 6 6 5 3 2 1 2 4 4 4 5 5 5 8 10 12 14 14 12 8 8 8 10 9 8 7 8 10 11 12 12 17 19
9 8 9 8 8 8 10 10 7 4 4 3 3 2 2 3 4 5 4 5 6 6 6 7 8 9 9 10 10 8 7 7 7 7 5 5 7 7 9 7 7 9 12
Wind_Direction
201 198 199 196 201 197 193 198 198 188 189 184 186 190 186 186 181 172 139 135 138 140 138 132 124 114 104 92 81 67 56 48 42 37 32 30 26 21 18 17 14 10 5
207 203 205 203 205 203 203 202 203 194 193 191 189 193 193 187 190 184 162 144 137 144 149 146 136 125 112 98 85 70 56 43 32 24 18 15 12 7 3 3 1 357 352
212 209 211 206 206 205 204 207 201 200 194 191 193 193 195 197 194 189 182 171 157 147 158 158 150 141 124 105 87 71 52 34 17 6 360 355 350 346 341 341 340 338 336
214 213 214 211 207 203 201 200 197 196 194 197 195 189 195 196 203 195 189 187 180 171 164 163 161 155 144 120 85 57 38 15 356 343 337 333 329 325 322 321 320 320 321
215 215 216 213 206 204 203 201 203 202 200 198 196 191 197 199 201 200 201 195 190 189 178 153 153 152 158 151 104 22 3 347 333 322 317 315 313 311 309 309 309 309 310
217 217 217 215 207 204 204 203 201 204 206 190 185 193 203 206 208 207 206 199 194 194 196 180 175 159 162 168 169 322 328 324 317 311 307 306 305 303 302 302 302 302 302
220 217 218 215 209 208 207 206 199 198 196 178 174 192 205 216 218 210 210 205 200 198 198 196 199 189 176 170 179 266 308 309 309 307 306 302 301 300 300 300 298 298 298
222 217 218 216 210 211 209 206 199 197 189 186 191 191 207 204 214 213 210 212 206 198 204 203 200 199 199 196 145 168 293 307 308 308 307 305 303 302 302 300 299 298 296
222 218 219 218 213 210 211 207 201 200 195 195 203 200 205 216 179 187 209 209 208 203 203 201 202 197 197 197 181 164 160 310 306 307 308 307 305 303 300 298 296 295 295
223 221 220 220 217 213 214 210 207 207 203 194 203 224 245 251 184 175 189 207 210 212 206 195 196 191 191 186 165 146 179 286 299 305 307 306 303 301 299 297 296 295 295
226 222 220 220 220 217 218 214 208 209 209 202 193 191 205 219 229 202 184 181 197 208 206 199 190 186 183 182 184 163 185 280 305 309 307 305 303 301 299 298 297 296 296
232 226 220 221 221 220 221 219 213 213 213 212 202 195 190 189 199 204 196 171 180 173 185 190 191 180 179 182 179 162 210 285 305 307 305 303 301 300 300 299 297 295 294
238 231 222 223 222 222 221 220 218 216 216 216 210 206 207 202 178 183 177 150 147 137 171 187 188 176 178 188 177 188 238 283 300 302 301 300 301 302 300 298 295 293 291
246 239 230 227 224 219 215 212 214 213 212 216 216 206 195 182 167 166 159 146 142 155 182 176 159 183 182 197 202 235 264 275 291 297 299 299 300 299 296 294 292 291 290
258 248 238 229 219 211 204 197 201 197 189 192 186 174 159 140 124 112 114 137 152 172 194 173 172 180 190 210 229 259 277 280 287 292 294 295 295 293 292 291 289 287 286
256 243 236 223 204 193 185 181 178 175 170 164 154 148 139 131 119 109 106 96 101 135 162 162 181 165 187 221 245 263 272 280 280 284 287 290 291 290 288 287 285 284 284
256 230 210 194 179 175 171 168 166 162 157 149 146 142 136 130 120 110 104 102 96 105 147 153 177 188 217 243 257 263 270 276 278 280 285 289 289 288 287 286 284 283 282
32 111 144 154 154 154 154 155 153 151 149 145 141 134 131 124 117 115 113 112 111 110 140 194 207 214 235 254 268 276 279 279 278 283 287 289 288 288 286 284 282 282 282
60 72 88 106 117 123 127 131 132 131 128 127 129 127 126 125 121 118 118 118 120 134 166 217 241 237 248 259 275 276 278 278 280 282 286 286 287 286 284 283 283 283 283
64 70 75 81 90 97 103 108 111 110 107 105 105 108 112 117 121 125 123 128 143 175 206 229 247 257 261 267 271 281 288 289 290 291 287 284 283 284 283 282 281 281 281
66 71 75 77 79 83 94 101 101 102 101 98 93 91 95 105 117 123 131 156 183 211 230 246 260 269 272 278 283 295 294 298 296 292 288 286 286 283 283 281 279 277 278
69 73 75 78 79 84 96 98 99 95 96 96 94 90 91 91 101 109 135 202 230 245 254 262 270 274 283 289 294 294 296 298 300 296 297 294 292 286 283 280 281 283 282
70 71 74 77 81 87 91 91 91 90 91 92 96 100 101 103 99 96 25 269 264 275 275 279 279 281 289 294 296 293 289 288 286 290 294 289 289 286 285 282 284 283 284
71 72 73 76 79 83 87 89 89 86 89 93 97 103 109 115 110 282 269 269 271 270 276 277 279 284 286 288 285 283 285 285 283 280 278 282 287 288 291 288 286 284 284
71 71 74 79 83 84 87 92 94 97 98 99 98 91 73 37 324 295 286 286 289 286 277 278 283 285 287 287 288 286 282 282 286 288 288 281 287 297 293 284 282 281 282
80 81 78 77 87 96 97 95 90 91 95 96 94 78 38 345 329 314 302 292 292 301 302 294 286 282 282 281 278 267 268 271 278 287 283 279 290 306 297 280 283 286 285